LEMUR-2-SOKOLSKY

Last updated on Wed Feb 14 2018 16:20:12 GMT+0000 (Coordinated Universal Time)

1 41872U 16062D 18044.95509930 .00000459 00000-0 32694-4 0 9990 2 41872 51.6858 17.6446 0002547 25.0796 335.0331 15.23692032 67781

Satellite not in orbit

LEMUR-2-SOKOLSKY